Time,TemperatureF,DewpointF,PressureIn,WindDirection,WindDirectionDegrees,WindSpeedMPH,WindSpeedGustMPH,Humidity,HourlyPrecipIn,Conditions,Clouds,dailyrainin,SoftwareType,DateUTC
2013-01-27 00:01:00,10.0,7.0,-100.00,East,85,1.0,4.0,87,0.00,,,-99.99,,2013-01-27 06:01:00,
2013-01-27 00:11:00,10.0,7.0,-100.00,East,85,1.0,4.0,87,0.00,,,-99.99,,2013-01-27 06:11:00,
2013-01-27 00:21:00,10.0,7.0,-100.00,ESE,105,1.0,3.0,87,0.00,,,-99.99,,2013-01-27 06:21:00,
2013-01-27 00:32:00,9.0,6.0,-100.00,East,90,1.0,2.0,87,0.00,,,-99.99,,2013-01-27 06:32:00,
2013-01-27 00:42:00,9.0,6.0,-100.00,ESE,105,2.0,4.0,88,0.00,,,-99.99,,2013-01-27 06:42:00,
2013-01-27 00:52:00,9.0,6.0,-100.00,ESE,105,2.0,4.0,88,0.00,,,-99.99,,2013-01-27 06:52:00,
2013-01-27 01:01:00,9.0,6.0,-100.00,ESE,115,2.0,3.0,88,0.00,,,-99.99,,2013-01-27 07:01:00,
2013-01-27 01:14:00,9.0,6.0,-100.00,ESE,115,2.0,3.0,88,0.00,,,-99.99,,2013-01-27 07:14:00,
2013-01-27 01:21:00,9.0,7.0,-100.00,ESE,110,4.0,6.0,89,0.00,,,-99.99,,2013-01-27 07:21:00,
2013-01-27 01:31:00,8.0,6.0,-100.00,East,100,3.0,5.0,89,0.00,,,-99.99,,2013-01-27 07:31:00,
2013-01-27 01:41:00,8.0,6.0,-100.00,East,90,0.0,4.0,90,0.00,,,-99.99,,2013-01-27 07:41:00,
2013-01-27 01:51:00,8.0,6.0,-100.00,East,90,0.0,4.0,90,0.00,,,-99.99,,2013-01-27 07:51:00,
2013-01-27 02:01:00,8.0,6.0,-100.00,East,95,0.0,3.0,90,0.00,,,-99.99,,2013-01-27 08:01:00,
2013-01-27 02:11:00,8.0,6.0,-100.00,East,95,0.0,3.0,90,0.00,,,-99.99,,2013-01-27 08:11:00,
2013-01-27 02:22:00,8.0,6.0,-100.00,East,90,0.0,2.0,91,0.00,,,-99.99,,2013-01-27 08:22:00,
2013-01-27 02:31:00,8.0,6.0,-100.00,East,85,1.0,2.0,91,0.00,,,-99.99,,2013-01-27 08:31:00,
2013-01-27 02:42:00,8.0,6.0,-100.00,East,90,2.0,3.0,91,0.00,,,-99.99,,2013-01-27 08:42:00,
2013-01-27 02:52:00,8.0,6.0,-100.00,East,90,2.0,3.0,91,0.00,,,-99.99,,2013-01-27 08:52:00,
2013-01-27 03:02:00,8.0,6.0,-100.00,East,90,0.0,2.0,91,0.00,,,-99.99,,2013-01-27 09:02:00,
2013-01-27 03:11:00,8.0,6.0,-100.00,East,90,0.0,2.0,91,0.00,,,-99.99,,2013-01-27 09:11:00,
2013-01-27 03:21:00,8.0,6.0,-100.00,East,90,1.0,3.0,92,0.00,,,-99.99,,2013-01-27 09:21:00,
2013-01-27 03:32:00,8.0,6.0,-100.00,East,90,1.0,2.0,92,0.00,,,-99.99,,2013-01-27 09:32:00,
2013-01-27 03:41:00,8.0,6.0,-100.00,East,95,1.0,3.0,92,0.00,,,-99.99,,2013-01-27 09:41:00,
2013-01-27 03:51:00,8.0,6.0,-100.00,East,95,1.0,3.0,92,0.00,,,-99.99,,2013-01-27 09:51:00,
2013-01-27 04:01:00,8.0,6.0,-100.00,East,95,0.0,2.0,92,0.00,,,-99.99,,2013-01-27 10:01:00,
2013-01-27 04:11:00,8.0,6.0,-100.00,East,95,0.0,2.0,92,0.00,,,-99.99,,2013-01-27 10:11:00,
2013-01-27 04:21:00,8.0,6.0,-100.00,East,85,0.0,1.0,93,0.00,,,-99.99,,2013-01-27 10:21:00,
2013-01-27 04:31:00,8.0,7.0,-100.00,East,85,0.0,1.0,93,0.00,,,-99.99,,2013-01-27 10:31:00,
2013-01-27 04:42:00,8.0,6.0,-100.00,East,100,0.0,3.0,93,0.00,,,-99.99,,2013-01-27 10:42:00,
2013-01-27 04:51:00,8.0,6.0,-100.00,East,100,0.0,3.0,93,0.00,,,-99.99,,2013-01-27 10:51:00,
2013-01-27 05:01:00,8.0,7.0,-100.00,East,100,0.0,1.0,93,0.00,,,-99.99,,2013-01-27 11:01:00,
2013-01-27 05:11:00,8.0,7.0,-100.00,East,100,0.0,1.0,93,0.00,,,-99.99,,2013-01-27 11:11:00,
2013-01-27 05:21:00,8.0,7.0,-100.00,East,85,1.0,2.0,94,0.00,,,-99.99,,2013-01-27 11:21:00,
2013-01-27 05:32:00,9.0,7.0,-100.00,East,100,0.0,1.0,94,0.00,,,-99.99,,2013-01-27 11:32:00,
2013-01-27 05:42:00,9.0,7.0,-100.00,ENE,70,0.0,1.0,94,0.00,,,-99.99,,2013-01-27 11:42:00,
2013-01-27 05:52:00,9.0,7.0,-100.00,ENE,70,0.0,1.0,94,0.00,,,-99.99,,2013-01-27 11:52:00,
2013-01-27 06:02:00,8.0,7.0,-100.00,NE,45,1.0,2.0,94,0.00,,,-99.99,,2013-01-27 12:02:00,
2013-01-27 06:11:00,8.0,7.0,-100.00,NE,45,1.0,2.0,94,0.00,,,-99.99,,2013-01-27 12:11:00,
2013-01-27 06:21:00,8.0,7.0,-100.00,NE,40,0.0,3.0,94,0.00,,,-99.99,,2013-01-27 12:21:00,
2013-01-27 06:32:00,8.0,7.0,-100.00,NE,40,0.0,2.0,94,0.00,,,-99.99,,2013-01-27 12:32:00,
2013-01-27 06:42:00,8.0,7.0,-100.00,NE,40,0.0,1.0,94,0.00,,,-99.99,,2013-01-27 12:42:00,
2013-01-27 06:52:00,8.0,7.0,-100.00,NE,40,0.0,1.0,94,0.00,,,-99.99,,2013-01-27 12:52:00,
2013-01-27 07:02:00,8.0,7.0,-100.00,NE,40,0.0,0.0,94,0.00,,,-99.99,,2013-01-27 13:02:00,
2013-01-27 07:11:00,8.0,7.0,-100.00,NE,40,0.0,0.0,94,0.00,,,-99.99,,2013-01-27 13:11:00,
2013-01-27 07:22:00,8.0,7.0,-100.00,NE,40,0.0,1.0,94,0.00,,,-99.99,,2013-01-27 13:22:00,
2013-01-27 07:32:00,8.0,7.0,-100.00,NE,40,1.0,2.0,95,0.00,,,-99.99,,2013-01-27 13:32:00,
2013-01-27 07:42:00,8.0,7.0,-100.00,NE,40,1.0,2.0,95,0.00,,,-99.99,,2013-01-27 13:42:00,
2013-01-27 07:52:00,8.0,7.0,-100.00,NE,40,1.0,2.0,95,0.00,,,-99.99,,2013-01-27 13:52:00,
2013-01-27 08:02:00,8.0,7.0,-100.00,ENE,65,0.0,2.0,95,0.00,,,-99.99,,2013-01-27 14:02:00,
2013-01-27 08:11:00,8.0,7.0,-100.00,ENE,65,0.0,2.0,95,0.00,,,-99.99,,2013-01-27 14:11:00,
2013-01-27 08:22:00,9.0,8.0,-100.00,ENE,65,0.0,1.0,95,0.00,,,-99.99,,2013-01-27 14:22:00,
2013-01-27 08:32:00,9.0,8.0,-100.00,ENE,70,0.0,1.0,95,0.00,,,-99.99,,2013-01-27 14:32:00,
2013-01-27 08:42:00,10.0,9.0,-100.00,ENE,70,0.0,1.0,95,0.00,,,-99.99,,2013-01-27 14:42:00,
2013-01-27 08:52:00,10.0,9.0,-100.00,ENE,70,0.0,1.0,95,0.00,,,-99.99,,2013-01-27 14:52:00,
2013-01-27 09:02:00,11.0,10.0,-100.00,East,95,2.0,4.0,95,0.00,,,-99.99,,2013-01-27 15:02:00,
2013-01-27 09:12:00,11.0,10.0,-100.00,East,95,2.0,4.0,95,0.00,,,-99.99,,2013-01-27 15:12:00,
2013-01-27 09:22:00,14.0,13.0,-100.00,East,85,2.0,4.0,95,0.00,,,-99.99,,2013-01-27 15:22:00,
2013-01-27 09:32:00,16.0,15.0,-100.00,ENE,70,1.0,4.0,95,0.00,,,-99.99,,2013-01-27 15:32:00,
2013-01-27 09:42:00,19.0,18.0,-100.00,ENE,75,1.0,5.0,95,0.00,,,-99.99,,2013-01-27 15:42:00,
2013-01-27 09:52:00,19.0,18.0,-100.00,ENE,75,1.0,5.0,95,0.00,,,-99.99,,2013-01-27 15:52:00,
2013-01-27 10:02:00,19.0,18.0,-100.00,NE,35,0.0,1.0,94,0.00,,,-99.99,,2013-01-27 16:02:00,
2013-01-27 10:12:00,19.0,18.0,-100.00,NE,35,0.0,1.0,94,0.00,,,-99.99,,2013-01-27 16:12:00,
2013-01-27 10:21:00,20.0,18.0,-100.00,East,85,0.0,5.0,91,0.00,,,-99.99,,2013-01-27 16:21:00,
2013-01-27 10:32:00,21.0,18.0,-100.00,East,90,1.0,4.0,89,0.00,,,-99.99,,2013-01-27 16:32:00,
2013-01-27 10:42:00,22.0,18.0,-100.00,NNE,30,1.0,2.0,86,0.00,,,-99.99,,2013-01-27 16:42:00,
2013-01-27 10:52:00,22.0,18.0,-100.00,NNE,30,1.0,2.0,86,0.00,,,-99.99,,2013-01-27 16:52:00,
2013-01-27 11:02:00,23.0,19.0,-100.00,NNE,25,1.0,3.0,85,0.00,,,-99.99,,2013-01-27 17:02:00,
2013-01-27 11:12:00,23.0,19.0,-100.00,NNE,25,1.0,3.0,85,0.00,,,-99.99,,2013-01-27 17:12:00,
2013-01-27 11:22:00,25.0,20.0,-100.00,NNE,30,2.0,3.0,81,0.00,,,-99.99,,2013-01-27 17:22:00,
2013-01-27 11:32:00,26.0,20.0,-100.00,NNE,30,1.0,3.0,78,0.00,,,-99.99,,2013-01-27 17:32:00,
2013-01-27 11:42:00,27.0,20.0,-100.00,ENE,65,0.0,2.0,74,0.00,,,-99.99,,2013-01-27 17:42:00,
2013-01-27 11:52:00,27.0,20.0,-100.00,ENE,65,0.0,2.0,74,0.00,,,-99.99,,2013-01-27 17:52:00,
2013-01-27 12:02:00,27.0,20.0,-100.00,East,80,0.0,2.0,73,0.00,,,-99.99,,2013-01-27 18:02:00,
2013-01-27 12:11:00,27.0,20.0,-100.00,East,80,0.0,2.0,73,0.00,,,-99.99,,2013-01-27 18:11:00,
2013-01-27 12:22:00,27.0,20.0,-100.00,ESE,110,0.0,3.0,73,0.00,,,-99.99,,2013-01-27 18:22:00,
2013-01-27 12:32:00,27.0,20.0,-100.00,East,95,1.0,4.0,73,0.00,,,-99.99,,2013-01-27 18:32:00,
2013-01-27 12:42:00,29.0,21.0,-100.00,ESE,105,6.0,9.0,73,0.00,,,-99.99,,2013-01-27 18:42:00,
2013-01-27 12:52:00,29.0,21.0,-100.00,ESE,105,6.0,9.0,73,0.00,,,-99.99,,2013-01-27 18:52:00,
2013-01-27 13:02:00,30.0,22.0,-100.00,ESE,110,4.0,9.0,73,0.00,,,-99.99,,2013-01-27 19:02:00,
2013-01-27 13:11:00,30.0,22.0,-100.00,ESE,110,4.0,9.0,73,0.00,,,-99.99,,2013-01-27 19:11:00,
2013-01-27 13:22:00,31.0,23.0,-100.00,East,95,5.0,8.0,70,0.00,,,-99.99,,2013-01-27 19:22:00,
2013-01-27 13:32:00,31.0,23.0,-100.00,East,95,4.0,9.0,70,0.00,,,-99.99,,2013-01-27 19:32:00,
2013-01-27 13:42:00,31.0,23.0,-100.00,ESE,115,5.0,9.0,71,0.00,,,-99.99,,2013-01-27 19:42:00,
2013-01-27 13:52:00,31.0,23.0,-100.00,ESE,115,5.0,9.0,71,0.00,,,-99.99,,2013-01-27 19:52:00,
2013-01-27 14:02:00,31.0,23.0,-100.00,ESE,120,4.0,9.0,71,0.00,,,-99.99,,2013-01-27 20:02:00,
2013-01-27 14:11:00,31.0,23.0,-100.00,ESE,120,4.0,9.0,71,0.00,,,-99.99,,2013-01-27 20:11:00,
2013-01-27 14:22:00,31.0,24.0,-100.00,East,95,4.0,9.0,72,0.00,,,-99.99,,2013-01-27 20:22:00,
2013-01-27 14:32:00,31.0,23.0,-100.00,ESE,110,6.0,9.0,71,0.00,,,-99.99,,2013-01-27 20:32:00,
2013-01-27 14:42:00,32.0,24.0,-100.00,ESE,115,6.0,9.0,71,0.00,,,-99.99,,2013-01-27 20:42:00,
2013-01-27 14:52:00,32.0,24.0,-100.00,ESE,115,6.0,9.0,71,0.00,,,-99.99,,2013-01-27 20:52:00,
2013-01-27 15:02:00,32.0,24.0,-100.00,ESE,110,6.0,9.0,71,0.00,,,-99.99,,2013-01-27 21:02:00,
2013-01-27 15:12:00,32.0,24.0,-100.00,ESE,110,6.0,9.0,71,0.00,,,-99.99,,2013-01-27 21:12:00,
2013-01-27 15:22:00,32.0,24.0,-100.00,East,100,7.0,9.0,73,0.00,,,-99.99,,2013-01-27 21:22:00,
2013-01-27 15:33:00,32.0,25.0,-100.00,ESE,110,6.0,8.0,73,0.00,,,-99.99,,2013-01-27 21:33:00,
2013-01-27 15:42:00,32.0,25.0,-100.00,ESE,105,6.0,9.0,74,0.00,,,-99.99,,2013-01-27 21:42:00,
2013-01-27 15:52:00,32.0,25.0,-100.00,ESE,105,6.0,9.0,74,0.00,,,-99.99,,2013-01-27 21:52:00,
2013-01-27 16:02:00,32.0,25.0,-100.00,East,95,5.0,9.0,74,0.00,,,-99.99,,2013-01-27 22:02:00,
2013-01-27 16:11:00,32.0,25.0,-100.00,East,95,5.0,9.0,74,0.00,,,-99.99,,2013-01-27 22:11:00,
2013-01-27 16:22:00,32.0,25.0,-100.00,ESE,120,4.0,9.0,75,0.00,,,-99.99,,2013-01-27 22:22:00,
2013-01-27 16:32:00,32.0,25.0,-100.00,ESE,110,4.0,8.0,75,0.00,,,-99.99,,2013-01-27 22:32:00,
2013-01-27 16:42:00,32.0,26.0,-100.00,ESE,115,6.0,9.0,76,0.00,,,-99.99,,2013-01-27 22:42:00,
2013-01-27 16:52:00,32.0,26.0,-100.00,ESE,115,6.0,9.0,76,0.00,,,-99.99,,2013-01-27 22:52:00,
2013-01-27 17:02:00,32.0,26.0,-100.00,ESE,110,4.0,9.0,76,0.00,,,-99.99,,2013-01-27 23:02:00,
2013-01-27 17:12:00,32.0,26.0,-100.00,ESE,110,4.0,9.0,76,0.00,,,-99.99,,2013-01-27 23:12:00,
2013-01-27 17:21:00,32.0,26.0,-100.00,ESE,110,6.0,8.0,76,0.00,,,-99.99,,2013-01-27 23:21:00,
2013-01-27 17:32:00,32.0,26.0,-100.00,SE,125,4.0,8.0,76,0.00,,,-99.99,,2013-01-27 23:32:00,
2013-01-27 17:42:00,32.0,26.0,-100.00,ESE,110,4.0,6.0,77,0.00,,,-99.99,,2013-01-27 23:42:00,
2013-01-27 17:52:00,32.0,26.0,-100.00,ESE,110,4.0,6.0,77,0.00,,,-99.99,,2013-01-27 23:52:00,
2013-01-27 18:02:00,32.0,26.0,-100.00,ESE,120,4.0,6.0,78,0.00,,,-99.99,,2013-01-28 00:02:00,
2013-01-27 18:11:00,32.0,26.0,-100.00,ESE,120,4.0,6.0,78,0.00,,,-99.99,,2013-01-28 00:11:00,
2013-01-27 18:21:00,32.0,26.0,-100.00,East,100,3.0,6.0,79,0.00,,,-99.99,,2013-01-28 00:21:00,
2013-01-27 18:32:00,32.0,27.0,-100.00,ESE,110,4.0,6.0,81,0.00,,,-99.99,,2013-01-28 00:32:00,
2013-01-27 18:42:00,31.0,27.0,-100.00,SE,125,4.0,6.0,81,0.00,,,-99.99,,2013-01-28 00:42:00,
2013-01-27 18:51:00,31.0,27.0,-100.00,SE,125,4.0,6.0,81,0.00,,,-99.99,,2013-01-28 00:51:00,
2013-01-27 19:01:00,31.0,27.0,-100.00,ESE,105,4.0,6.0,81,0.00,,,-99.99,,2013-01-28 01:01:00,
2013-01-27 19:11:00,31.0,27.0,-100.00,ESE,105,4.0,6.0,81,0.00,,,-99.99,,2013-01-28 01:11:00,
2013-01-27 19:22:00,31.0,26.0,-100.00,East,100,5.0,7.0,81,0.00,,,-99.99,,2013-01-28 01:22:00,
2013-01-27 19:33:00,31.0,26.0,-100.00,ESE,110,4.0,9.0,81,0.00,,,-99.99,,2013-01-28 01:33:00,
2013-01-27 19:42:00,31.0,27.0,-100.00,ESE,110,4.0,7.0,82,0.00,,,-99.99,,2013-01-28 01:42:00,
2013-01-27 19:52:00,31.0,27.0,-100.00,ESE,110,4.0,7.0,82,0.00,,,-99.99,,2013-01-28 01:52:00,
2013-01-27 20:02:00,31.0,27.0,-100.00,ESE,105,4.0,6.0,83,0.00,,,-99.99,,2013-01-28 02:02:00,
2013-01-27 20:11:00,31.0,27.0,-100.00,ESE,105,4.0,6.0,83,0.00,,,-99.99,,2013-01-28 02:11:00,
2013-01-27 20:22:00,31.0,27.0,-100.00,ESE,120,2.0,4.0,84,0.00,,,-99.99,,2013-01-28 02:22:00,
2013-01-27 20:32:00,31.0,27.0,-100.00,ESE,115,2.0,4.0,84,0.00,,,-99.99,,2013-01-28 02:32:00,
2013-01-27 20:42:00,31.0,27.0,-100.00,SE,145,1.0,3.0,85,0.00,,,-99.99,,2013-01-28 02:42:00,
2013-01-27 20:52:00,31.0,27.0,-100.00,SE,145,1.0,3.0,85,0.00,,,-99.99,,2013-01-28 02:52:00,
2013-01-27 21:02:00,31.0,27.0,-100.00,SE,130,1.0,4.0,86,0.00,,,-99.99,,2013-01-28 03:02:00,
2013-01-27 21:12:00,31.0,27.0,-100.00,SE,130,1.0,4.0,86,0.00,,,-99.99,,2013-01-28 03:12:00,
2013-01-27 21:21:00,31.0,27.0,-100.00,ESE,105,2.0,3.0,87,0.00,,,-99.99,,2013-01-28 03:21:00,
2013-01-27 21:32:00,30.0,27.0,-100.00,ESE,105,2.0,4.0,87,0.00,,,-99.99,,2013-01-28 03:32:00,
2013-01-27 21:42:00,31.0,27.0,-100.00,SE,125,3.0,5.0,88,0.00,,,-99.99,,2013-01-28 03:42:00,
2013-01-27 21:52:00,31.0,27.0,-100.00,SE,125,3.0,5.0,88,0.00,,,-99.99,,2013-01-28 03:52:00,
2013-01-27 22:02:00,31.0,28.0,-100.00,SE,145,2.0,4.0,89,0.00,,,-99.99,,2013-01-28 04:02:00,
2013-01-27 22:11:00,31.0,28.0,-100.00,SE,145,2.0,4.0,89,0.00,,,-99.99,,2013-01-28 04:11:00,
2013-01-27 22:21:00,30.0,28.0,-100.00,SSE,165,3.0,7.0,90,0.00,,,-99.99,,2013-01-28 04:21:00,
2013-01-27 22:32:00,30.0,28.0,-100.00,SE,125,4.0,6.0,91,0.00,,,-99.99,,2013-01-28 04:32:00,
2013-01-27 22:42:00,30.0,28.0,-100.00,ESE,120,2.0,4.0,92,0.00,,,-99.99,,2013-01-28 04:42:00,
2013-01-27 22:52:00,30.0,28.0,-100.00,ESE,120,2.0,4.0,92,0.00,,,-99.99,,2013-01-28 04:52:00,
2013-01-27 23:03:00,30.0,29.0,-100.00,ESE,110,1.0,4.0,94,0.00,,,-99.99,,2013-01-28 05:03:00,
2013-01-27 23:11:00,30.0,29.0,-100.00,ESE,110,1.0,4.0,94,0.00,,,-99.99,,2013-01-28 05:11:00,
2013-01-27 23:21:00,30.0,29.0,-100.00,ESE,110,3.0,4.0,95,0.00,,,-99.99,,2013-01-28 05:21:00,
2013-01-27 23:32:00,30.0,29.0,-100.00,ESE,110,3.0,5.0,96,0.00,,,-99.99,,2013-01-28 05:32:00,
2013-01-27 23:42:00,29.0,29.0,-100.00,ESE,110,2.0,4.0,97,0.00,,,-99.99,,2013-01-28 05:42:00,
2013-01-27 23:52:00,29.0,29.0,-100.00,ESE,110,2.0,4.0,97,0.00,,,-99.99,,2013-01-28 05:52:00,